World > North America > United States > Illinois

Hourly Cartter, IL Regional Weather

Feedback E-mail the Weather

Quick WX

Cartter, IL Weather Maps

°F °C°F °C
Cartter Weather Map
UTC Time: 6/30/2022, 16:30
Your Time:

Cartter, IL Regional Weather

Expires:202206301700;;446635
ASUS43 KLOT 301609
RWRIL 

ILLINOIS REGIONAL WEATHER ROUNDUP
NATIONAL WEATHER SERVICE CHICAGO/ROMEOVILLE IL
1100 AM CDT THU JUN 30 2022

NOTE: "FAIR" INDICATES FEW OR NO CLOUDS BELOW 12,000 FEET WITH NO
SIGNIFICANT WEATHER AND/OR OBSTRUCTIONS TO VISIBILITY.

* THESE STATIONS ARE NOT UNDER NWS QUALITY CONTROL. THEY ALSO MAY NOT
  REPORT WEATHER SUCH AS PRECIPITATION OR FOG.


ILZ064>066-069>071-074>076-080>082-084>086-088>090-092>094-301700-
SOUTH-CENTRAL ILLINOIS
  
CITY           SKY/WX    TMP DP  RH WIND       PRES   REMARKS
CARBONDALE     SUNNY     88  60  38 SW8       30.12F HX  87           
EFFINGHAM*     SUNNY     83  59  42 S7        30.16S HX  83           
MARION         SUNNY     84  64  51 SW7       30.12F HX  86           
MT. VERNON     SUNNY    N/A N/A N/A S5        30.13F                  
CENTRALIA*     SUNNY     85  59  40 W6        30.12F HX  84           
SALEM*         SUNNY     86  56  36 SW6       30.13S HX  84           
METROPOLIS*    SUNNY     84  67  56 S6        30.14S HX  86           
$$


SKY/WX - Weather  TMP - Temperature  DP - Dew Point  RH - Humidity
WIND - Wind Direction/Speed PRES - Barometric Pressure VSB - Visibility
WCI - Wind Chill Index E13G22 Wind - East Wind 13 mph/Gusts of 22 mph

Trending Headlines

Cartter Radar Loop



Cartter Quick Facts


National Two Day Weather Forecast


E-mail the Cartter Weather Forecast

Voice your opinion or tell us about page issues...